Погода в Соколовке

Россия / Удмуртская Республика     56°16′22″N   54°01′18″E
темп.,
°C
ветер,
м/с
пор.,
м/с
влажн.,
%
обл.,
%
осадки,
мм/ч
давл.,
гПа
погр.,
м
23 июня, ср
ср2301:00+20зсз37800 0.0 1017114
04:00+20зсз488587 0.0 1016138
07:00+23сз4878100 0.0 1016287
10:00+27ссз57541 0.0 1016699
13:00+30сз564429 0.0 10161928
16:00+27сз8858100 0.4 10161010
19:00+19вюв2793100 3.3 1017220
22:00+18в2396100 5.8 101876
24 июня, чт
чт2401:00+17ссз119464 0.0 101911
04:00+17всв11949 0.0 101911
07:00+20юв238581 0.0 1019229
10:00+24ю226898 0.0 1019645
13:00+26юз3260100 0.0 10181128
16:00+27з3460100 0.1 10171087
19:00+24юз367769 0.3 1015196
22:00+19юз71192100 24.3 1015194
25 июня, пт
пт2501:00+20з238785 1.1 101439
04:00+18зсз25957 1.4 1014111
07:00+21сз22840 0.0 1014187
10:00+25зсз33670 0.0 1014531
13:00+28з33591 0.0 1013845
16:00+29зсз34560 0.0 10121230
19:00+28юз34734 0.0 1011135
22:00+23з358317 0.0 101178
26 июня, сб
сб2601:00+21зсз359074 0.4 101184
04:00+20сз23890 0.4 101143
07:00+24сз37795 0.0 1011261
10:00+28ссз45605 0.0 1011624
13:00+29сз55534 0.0 10111445
16:00+30ссз355057 0.0 10111648
19:00+27с36665 0.0 1010208
22:00+21ссв22775 0.0 101223
27 июня, вс
вс2701:00+18всв37821 0.0 1012141
04:00+16св24844 0.0 101371
07:00+20всв47705 0.0 1014319
10:00+23св45555 0.0 10141012
13:00+26ссв34475 0.0 10141674
16:00+27ссв344612 0.0 10141903
19:00+25всв23635 0.0 101491
22:00+19юв117527 0.0 101511